Location: Dehesa de la Cepeda
(40.6574°N, 4.3013°W)
Time: 13:11:56
(UTC+00:00)

Transit 2A Rocket - Pass Details

Date: 06 August 2021
Orbit: 586 x 917 km, 66.7° (Epoch: 27 September)

Event Time Altitude Azimuth Distance (km) Brightness Sun altitude
Rises 22:20:45 0° 326° (NW) 3,331 9.6 -26.2°
Reaches altitude 10° 22:23:09 10° 323° (NW) 2,442 8.6 -26.5°
Maximum altitude 22:28:43 59° 245° (WSW) 1,007 5.5 -27.0°
Enters shadow 22:29:14 57° 222° (SW) 1,031 5.4 -27.1°
